Time,TemperatureF,DewpointF,PressureIn,WindDirection,WindDirectionDegrees,WindSpeedMPH,WindSpeedGustMPH,Humidity,HourlyPrecipIn,Conditions,Clouds,dailyrainin,SoftwareType,DateUTC
2013-09-20 00:00:00,76.5,69.1,30.09,NE,45,3.0,-999.0,78,0.00,,,0.00,Wunderground v.1.15,2013-09-20 10:00:00,
2013-09-20 00:05:00,76.5,69.1,30.09,NE,45,3.0,-999.0,78,0.00,,,0.00,Wunderground v.1.15,2013-09-20 10:05:00,
2013-09-20 00:10:00,76.5,69.1,30.09,NE,45,3.0,-999.0,78,0.00,,,0.00,Wunderground v.1.15,2013-09-20 10:10:00,
2013-09-20 00:15:00,76.5,69.1,30.09,NE,45,3.0,-999.0,78,0.00,,,0.00,Wunderground v.1.15,2013-09-20 10:15:00,
2013-09-20 00:20:00,76.5,69.1,30.09,NE,45,3.0,-999.0,78,0.00,,,0.00,Wunderground v.1.15,2013-09-20 10:20:00,
2013-09-20 00:25:00,76.5,69.1,30.09,NE,45,3.0,-999.0,78,0.00,,,0.00,Wunderground v.1.15,2013-09-20 10:25:00,
2013-09-20 00:30:00,76.5,69.1,30.09,NE,45,3.0,-999.0,78,0.00,,,0.00,Wunderground v.1.15,2013-09-20 10:30:00,
2013-09-20 00:35:00,76.5,69.1,30.09,NE,45,3.0,-999.0,78,0.00,,,0.00,Wunderground v.1.15,2013-09-20 10:35:00,
2013-09-20 00:40:00,76.5,69.1,30.09,NE,45,3.0,-999.0,78,0.00,,,0.00,Wunderground v.1.15,2013-09-20 10:40:00,
2013-09-20 00:45:00,76.2,69.2,30.08,NE,45,3.0,-999.0,79,0.00,,,0.00,Wunderground v.1.15,2013-09-20 10:45:00,
2013-09-20 00:50:00,76.2,69.2,30.08,NE,45,3.0,-999.0,79,0.00,,,0.00,Wunderground v.1.15,2013-09-20 10:50:00,
2013-09-20 00:55:00,76.2,69.2,30.08,NE,45,3.0,-999.0,79,0.00,,,0.00,Wunderground v.1.15,2013-09-20 10:55:00,
2013-09-20 01:00:00,76.2,69.2,30.08,NE,45,3.0,-999.0,79,0.00,,,0.00,Wunderground v.1.15,2013-09-20 11:00:00,
2013-09-20 01:05:00,76.2,69.2,30.08,NE,45,3.0,-999.0,79,0.00,,,0.00,Wunderground v.1.15,2013-09-20 11:05:00,
2013-09-20 01:10:00,76.2,69.2,30.08,NE,45,3.0,-999.0,79,0.00,,,0.00,Wunderground v.1.15,2013-09-20 11:10:00,
2013-09-20 01:15:00,75.9,68.5,30.07,NE,45,3.0,-999.0,78,0.00,,,0.00,Wunderground v.1.15,2013-09-20 11:15:00,
2013-09-20 01:20:00,75.9,68.5,30.07,NE,45,3.0,-999.0,78,0.00,,,0.00,Wunderground v.1.15,2013-09-20 11:20:00,
2013-09-20 01:25:00,75.9,68.5,30.07,NE,45,3.0,-999.0,78,0.00,,,0.00,Wunderground v.1.15,2013-09-20 11:25:00,
2013-09-20 01:30:00,75.9,68.5,30.07,NE,45,3.0,-999.0,78,0.00,,,0.00,Wunderground v.1.15,2013-09-20 11:30:00,
2013-09-20 01:35:00,75.9,68.5,30.07,NE,45,3.0,-999.0,78,0.00,,,0.00,Wunderground v.1.15,2013-09-20 11:35:00,
2013-09-20 01:40:00,75.9,68.5,30.07,NE,45,3.0,-999.0,78,0.00,,,0.00,Wunderground v.1.15,2013-09-20 11:40:00,
2013-09-20 01:45:00,75.9,68.5,30.07,ENE,68,3.0,-999.0,78,0.00,,,0.00,Wunderground v.1.15,2013-09-20 11:45:00,
2013-09-20 01:50:00,75.9,68.5,30.07,ENE,68,3.0,-999.0,78,0.00,,,0.00,Wunderground v.1.15,2013-09-20 11:50:00,
2013-09-20 01:55:00,75.9,68.5,30.07,ENE,68,3.0,-999.0,78,0.00,,,0.00,Wunderground v.1.15,2013-09-20 11:55:00,
2013-09-20 02:00:00,75.9,68.5,30.07,ENE,68,3.0,-999.0,78,0.00,,,0.00,Wunderground v.1.15,2013-09-20 12:00:00,
2013-09-20 02:05:00,75.9,68.5,30.07,ENE,68,3.0,-999.0,78,0.00,,,0.00,Wunderground v.1.15,2013-09-20 12:05:00,
2013-09-20 02:10:00,75.9,68.5,30.07,ENE,68,3.0,-999.0,78,0.00,,,0.00,Wunderground v.1.15,2013-09-20 12:10:00,
2013-09-20 02:15:00,75.6,67.5,30.06,East,90,1.0,-999.0,76,0.00,,,0.00,Wunderground v.1.15,2013-09-20 12:15:00,
2013-09-20 02:20:00,75.6,67.5,30.06,East,90,1.0,-999.0,76,0.00,,,0.00,Wunderground v.1.15,2013-09-20 12:20:00,
2013-09-20 02:25:00,75.6,67.5,30.06,East,90,1.0,-999.0,76,0.00,,,0.00,Wunderground v.1.15,2013-09-20 12:25:00,
2013-09-20 02:30:00,75.6,67.5,30.06,East,90,1.0,-999.0,76,0.00,,,0.00,Wunderground v.1.15,2013-09-20 12:30:00,
2013-09-20 02:35:00,75.6,67.5,30.06,East,90,1.0,-999.0,76,0.00,,,0.00,Wunderground v.1.15,2013-09-20 12:35:00,
2013-09-20 02:40:00,75.6,67.5,30.06,East,90,1.0,-999.0,76,0.00,,,0.00,Wunderground v.1.15,2013-09-20 12:40:00,
2013-09-20 02:45:00,74.9,67.6,30.06,ENE,68,1.0,-999.0,78,0.00,,,0.00,Wunderground v.1.15,2013-09-20 12:45:00,
2013-09-20 02:50:00,74.9,67.6,30.06,ENE,68,1.0,-999.0,78,0.00,,,0.00,Wunderground v.1.15,2013-09-20 12:50:00,
2013-09-20 02:55:00,74.9,67.6,30.06,ENE,68,1.0,-999.0,78,0.00,,,0.00,Wunderground v.1.15,2013-09-20 12:55:00,
2013-09-20 03:00:00,74.9,67.6,30.06,ENE,68,1.0,-999.0,78,0.00,,,0.00,Wunderground v.1.15,2013-09-20 13:00:00,
2013-09-20 03:05:00,74.9,67.6,30.06,ENE,68,1.0,-999.0,78,0.00,,,0.00,Wunderground v.1.15,2013-09-20 13:05:00,
2013-09-20 03:10:00,74.9,67.6,30.06,ENE,68,1.0,-999.0,78,0.00,,,0.00,Wunderground v.1.15,2013-09-20 13:10:00,
2013-09-20 03:15:00,74.3,68.1,30.06,ENE,68,2.0,-999.0,81,0.00,,,0.00,Wunderground v.1.15,2013-09-20 13:15:00,
2013-09-20 03:20:00,74.3,68.1,30.06,ENE,68,2.0,-999.0,81,0.00,,,0.00,Wunderground v.1.15,2013-09-20 13:20:00,
2013-09-20 03:25:00,74.3,68.1,30.06,ENE,68,2.0,-999.0,81,0.00,,,0.00,Wunderground v.1.15,2013-09-20 13:25:00,
2013-09-20 03:30:00,74.3,68.1,30.06,ENE,68,2.0,-999.0,81,0.00,,,0.00,Wunderground v.1.15,2013-09-20 13:30:00,
2013-09-20 03:35:00,74.3,68.1,30.06,ENE,68,2.0,-999.0,81,0.00,,,0.00,Wunderground v.1.15,2013-09-20 13:35:00,
2013-09-20 03:40:00,74.3,68.1,30.06,ENE,68,2.0,-999.0,81,0.00,,,0.00,Wunderground v.1.15,2013-09-20 13:40:00,
2013-09-20 03:45:00,74.7,68.1,30.06,NE,45,2.0,-999.0,80,0.00,,,0.00,Wunderground v.1.15,2013-09-20 13:45:00,
2013-09-20 03:50:00,74.7,68.1,30.06,NE,45,2.0,-999.0,80,0.00,,,0.00,Wunderground v.1.15,2013-09-20 13:50:00,
2013-09-20 03:55:00,74.7,68.1,30.06,NE,45,2.0,-999.0,80,0.00,,,0.00,Wunderground v.1.15,2013-09-20 13:55:00,
2013-09-20 04:00:00,74.7,68.1,30.06,NE,45,2.0,-999.0,80,0.00,,,0.00,Wunderground v.1.15,2013-09-20 14:00:00,
2013-09-20 04:05:00,74.7,68.1,30.06,NE,45,2.0,-999.0,80,0.00,,,0.00,Wunderground v.1.15,2013-09-20 14:05:00,
2013-09-20 04:10:00,74.7,68.1,30.06,NE,45,2.0,-999.0,80,0.00,,,0.00,Wunderground v.1.15,2013-09-20 14:10:00,
2013-09-20 04:15:00,74.8,67.8,30.06,NE,45,2.0,-999.0,79,0.00,,,0.00,Wunderground v.1.15,2013-09-20 14:15:00,
2013-09-20 04:20:00,74.8,67.8,30.06,NE,45,2.0,-999.0,79,0.00,,,0.00,Wunderground v.1.15,2013-09-20 14:20:00,
2013-09-20 04:25:00,74.8,67.8,30.06,NE,45,2.0,-999.0,79,0.00,,,0.00,Wunderground v.1.15,2013-09-20 14:25:00,
2013-09-20 04:30:00,74.8,67.8,30.06,NE,45,2.0,-999.0,79,0.00,,,0.00,Wunderground v.1.15,2013-09-20 14:30:00,
2013-09-20 04:35:00,74.8,67.8,30.06,NE,45,2.0,-999.0,79,0.00,,,0.00,Wunderground v.1.15,2013-09-20 14:35:00,
2013-09-20 04:40:00,74.8,67.8,30.06,NE,45,2.0,-999.0,79,0.00,,,0.00,Wunderground v.1.15,2013-09-20 14:40:00,
2013-09-20 04:45:00,74.5,68.3,30.07,NE,45,2.0,-999.0,81,0.00,,,0.00,Wunderground v.1.15,2013-09-20 14:45:00,
2013-09-20 04:50:00,74.5,68.3,30.07,NE,45,2.0,-999.0,81,0.00,,,0.00,Wunderground v.1.15,2013-09-20 14:50:00,
2013-09-20 04:55:00,74.5,68.3,30.07,NE,45,2.0,-999.0,81,0.00,,,0.00,Wunderground v.1.15,2013-09-20 14:55:00,
2013-09-20 05:00:00,74.5,68.3,30.07,NE,45,2.0,-999.0,81,0.00,,,0.00,Wunderground v.1.15,2013-09-20 15:00:00,
2013-09-20 05:05:00,74.5,68.3,30.07,NE,45,2.0,-999.0,81,0.00,,,0.00,Wunderground v.1.15,2013-09-20 15:05:00,
2013-09-20 05:10:00,74.5,68.3,30.07,NE,45,2.0,-999.0,81,0.00,,,0.00,Wunderground v.1.15,2013-09-20 15:10:00,
2013-09-20 05:15:00,75.1,67.8,30.07,NE,45,4.0,-999.0,78,0.00,,,0.00,Wunderground v.1.15,2013-09-20 15:15:00,
2013-09-20 05:20:00,75.1,67.8,30.07,NE,45,4.0,-999.0,78,0.00,,,0.00,Wunderground v.1.15,2013-09-20 15:20:00,
2013-09-20 05:25:00,75.1,67.8,30.07,NE,45,4.0,-999.0,78,0.00,,,0.00,Wunderground v.1.15,2013-09-20 15:25:00,
2013-09-20 05:30:00,75.1,67.8,30.07,NE,45,4.0,-999.0,78,0.00,,,0.00,Wunderground v.1.15,2013-09-20 15:30:00,
2013-09-20 05:35:00,75.1,67.8,30.07,NE,45,4.0,-999.0,78,0.00,,,0.00,Wunderground v.1.15,2013-09-20 15:35:00,
2013-09-20 05:40:00,75.1,67.8,30.07,NE,45,4.0,-999.0,78,0.00,,,0.00,Wunderground v.1.15,2013-09-20 15:40:00,
2013-09-20 05:45:00,75.6,68.6,30.08,NE,45,3.0,-999.0,79,0.00,,,0.00,Wunderground v.1.15,2013-09-20 15:45:00,
2013-09-20 05:50:00,75.6,68.6,30.08,NE,45,3.0,-999.0,79,0.00,,,0.00,Wunderground v.1.15,2013-09-20 15:50:00,
2013-09-20 05:55:00,75.6,68.6,30.08,NE,45,3.0,-999.0,79,0.00,,,0.00,Wunderground v.1.15,2013-09-20 15:55:00,
2013-09-20 06:00:00,75.6,68.6,30.08,NE,45,3.0,-999.0,79,0.00,,,0.00,Wunderground v.1.15,2013-09-20 16:00:00,
2013-09-20 06:05:00,75.6,68.6,30.08,NE,45,3.0,-999.0,79,0.00,,,0.00,Wunderground v.1.15,2013-09-20 16:05:00,
2013-09-20 06:10:00,75.6,68.6,30.08,NE,45,3.0,-999.0,79,0.00,,,0.00,Wunderground v.1.15,2013-09-20 16:10:00,
2013-09-20 06:15:00,75.5,68.9,30.08,NE,45,3.0,-999.0,80,0.00,,,0.00,Wunderground v.1.15,2013-09-20 16:15:00,
2013-09-20 06:20:00,75.5,68.9,30.08,NE,45,3.0,-999.0,80,0.00,,,0.00,Wunderground v.1.15,2013-09-20 16:20:00,
2013-09-20 06:25:00,75.5,68.9,30.08,NE,45,3.0,-999.0,80,0.00,,,0.00,Wunderground v.1.15,2013-09-20 16:25:00,
2013-09-20 06:30:00,75.5,68.9,30.08,NE,45,3.0,-999.0,80,0.00,,,0.00,Wunderground v.1.15,2013-09-20 16:30:00,
2013-09-20 06:35:00,75.5,68.9,30.08,NE,45,3.0,-999.0,80,0.00,,,0.00,Wunderground v.1.15,2013-09-20 16:35:00,
2013-09-20 06:40:00,75.5,68.9,30.08,NE,45,3.0,-999.0,80,0.00,,,0.00,Wunderground v.1.15,2013-09-20 16:40:00,
2013-09-20 06:45:00,75.5,68.9,30.08,NE,45,3.0,-999.0,80,0.00,,,0.00,Wunderground v.1.15,2013-09-20 16:45:00,
2013-09-20 06:50:00,75.5,68.9,30.08,NE,45,3.0,-999.0,80,0.00,,,0.00,Wunderground v.1.15,2013-09-20 16:50:00,
2013-09-20 06:55:00,75.5,68.9,30.08,NE,45,3.0,-999.0,80,0.00,,,0.00,Wunderground v.1.15,2013-09-20 16:55:00,
2013-09-20 07:00:00,75.5,68.9,30.08,NE,45,3.0,-999.0,80,0.00,,,0.00,Wunderground v.1.15,2013-09-20 17:00:00,
2013-09-20 07:05:00,75.5,68.9,30.08,NE,45,3.0,-999.0,80,0.00,,,0.00,Wunderground v.1.15,2013-09-20 17:05:00,
2013-09-20 07:10:00,75.5,68.9,30.08,NE,45,3.0,-999.0,80,0.00,,,0.00,Wunderground v.1.15,2013-09-20 17:10:00,
2013-09-20 07:15:00,76.0,68.3,30.08,NE,45,3.0,-999.0,77,0.00,,,0.00,Wunderground v.1.15,2013-09-20 17:15:00,
2013-09-20 07:20:00,76.0,68.3,30.08,NE,45,3.0,-999.0,77,0.00,,,0.00,Wunderground v.1.15,2013-09-20 17:20:00,
2013-09-20 07:25:00,76.0,68.3,30.08,NE,45,3.0,-999.0,77,0.00,,,0.00,Wunderground v.1.15,2013-09-20 17:25:00,
2013-09-20 07:30:00,76.0,68.3,30.08,NE,45,3.0,-999.0,77,0.00,,,0.00,Wunderground v.1.15,2013-09-20 17:30:00,
2013-09-20 07:35:00,76.0,68.3,30.08,NE,45,3.0,-999.0,77,0.00,,,0.00,Wunderground v.1.15,2013-09-20 17:35:00,
2013-09-20 07:40:00,76.0,68.3,30.08,NE,45,3.0,-999.0,77,0.00,,,0.00,Wunderground v.1.15,2013-09-20 17:40:00,
2013-09-20 07:45:00,78.9,67.4,30.09,NE,45,5.0,-999.0,68,0.00,,,0.00,Wunderground v.1.15,2013-09-20 17:45:00,
2013-09-20 07:50:00,78.9,67.4,30.09,NE,45,5.0,-999.0,68,0.00,,,0.00,Wunderground v.1.15,2013-09-20 17:50:00,
2013-09-20 07:55:00,78.9,67.4,30.09,NE,45,5.0,-999.0,68,0.00,,,0.00,Wunderground v.1.15,2013-09-20 17:55:00,
2013-09-20 08:00:00,78.9,67.4,30.09,NE,45,5.0,-999.0,68,0.00,,,0.00,Wunderground v.1.15,2013-09-20 18:00:00,
2013-09-20 08:05:00,78.9,67.4,30.09,NE,45,5.0,-999.0,68,0.00,,,0.00,Wunderground v.1.15,2013-09-20 18:05:00,
2013-09-20 08:10:00,78.9,67.4,30.09,NE,45,5.0,-999.0,68,0.00,,,0.00,Wunderground v.1.15,2013-09-20 18:10:00,
2013-09-20 08:15:00,81.2,68.3,30.10,NE,45,6.0,-999.0,65,0.00,,,0.00,Wunderground v.1.15,2013-09-20 18:15:00,
2013-09-20 08:20:00,81.2,68.3,30.10,NE,45,6.0,-999.0,65,0.00,,,0.00,Wunderground v.1.15,2013-09-20 18:20:00,
2013-09-20 08:25:00,81.2,68.3,30.10,NE,45,6.0,-999.0,65,0.00,,,0.00,Wunderground v.1.15,2013-09-20 18:25:00,
2013-09-20 08:30:00,81.2,68.3,30.10,NE,45,6.0,-999.0,65,0.00,,,0.00,Wunderground v.1.15,2013-09-20 18:30:00,
2013-09-20 08:35:00,81.2,68.3,30.10,NE,45,6.0,-999.0,65,0.00,,,0.00,Wunderground v.1.15,2013-09-20 18:35:00,
2013-09-20 08:40:00,81.2,68.3,30.10,NE,45,6.0,-999.0,65,0.00,,,0.00,Wunderground v.1.15,2013-09-20 18:40:00,
2013-09-20 08:45:00,83.2,68.3,30.10,ENE,68,6.0,-999.0,61,0.00,,,0.00,Wunderground v.1.15,2013-09-20 18:45:00,
2013-09-20 08:50:00,83.2,68.3,30.10,ENE,68,6.0,-999.0,61,0.00,,,0.00,Wunderground v.1.15,2013-09-20 18:50:00,
2013-09-20 08:55:00,83.2,68.3,30.10,ENE,68,6.0,-999.0,61,0.00,,,0.01,Wunderground v.1.15,2013-09-20 18:55:00,
2013-09-20 09:00:00,83.2,68.3,30.10,ENE,68,6.0,-999.0,61,0.00,,,0.01,Wunderground v.1.15,2013-09-20 19:00:00,
2013-09-20 09:04:00,83.2,68.3,30.10,ENE,68,6.0,-999.0,61,0.00,,,0.00,Wunderground v.1.15,2013-09-20 19:04:00,
2013-09-20 09:05:00,83.2,68.3,30.10,ENE,68,6.0,-999.0,61,0.00,,,0.01,Wunderground v.1.15,2013-09-20 19:05:00,
2013-09-20 09:10:00,83.2,68.3,30.10,ENE,68,6.0,-999.0,61,0.00,,,0.01,Wunderground v.1.15,2013-09-20 19:10:00,
2013-09-20 09:15:00,85.0,69.1,30.11,NE,45,6.0,-999.0,59,0.00,,,0.01,Wunderground v.1.15,2013-09-20 19:15:00,
2013-09-20 09:20:00,85.0,69.1,30.11,NE,45,6.0,-999.0,59,0.00,,,0.01,Wunderground v.1.15,2013-09-20 19:20:00,
2013-09-20 09:25:00,85.0,69.1,30.11,NE,45,6.0,-999.0,59,0.00,,,0.01,Wunderground v.1.15,2013-09-20 19:25:00,
2013-09-20 09:30:00,85.0,69.1,30.11,NE,45,6.0,-999.0,59,0.00,,,0.01,Wunderground v.1.15,2013-09-20 19:30:00,
2013-09-20 09:35:00,85.0,69.1,30.11,NE,45,6.0,-999.0,59,0.00,,,0.01,Wunderground v.1.15,2013-09-20 19:35:00,
2013-09-20 09:40:00,85.0,69.1,30.11,NE,45,6.0,-999.0,59,0.00,,,0.01,Wunderground v.1.15,2013-09-20 19:40:00,
2013-09-20 09:45:00,85.4,68.9,30.11,NE,45,6.0,-999.0,58,0.00,,,0.01,Wunderground v.1.15,2013-09-20 19:45:00,
2013-09-20 09:50:00,85.4,68.9,30.11,NE,45,6.0,-999.0,58,0.00,,,0.01,Wunderground v.1.15,2013-09-20 19:50:00,
2013-09-20 09:55:00,85.4,68.9,30.11,NE,45,6.0,-999.0,58,0.00,,,0.01,Wunderground v.1.15,2013-09-20 19:55:00,
2013-09-20 10:00:00,85.4,68.9,30.11,NE,45,6.0,-999.0,58,0.00,,,0.01,Wunderground v.1.15,2013-09-20 20:00:00,
2013-09-20 10:05:00,85.4,68.9,30.11,NE,45,6.0,-999.0,58,0.00,,,0.01,Wunderground v.1.15,2013-09-20 20:05:00,
2013-09-20 10:10:00,85.4,68.9,30.11,NE,45,6.0,-999.0,58,0.00,,,0.01,Wunderground v.1.15,2013-09-20 20:10:00,
2013-09-20 10:15:00,86.9,68.8,30.10,NE,45,8.0,-999.0,55,0.00,,,0.01,Wunderground v.1.15,2013-09-20 20:15:00,
2013-09-20 10:20:00,86.9,68.8,30.10,NE,45,8.0,-999.0,55,0.00,,,0.01,Wunderground v.1.15,2013-09-20 20:20:00,
2013-09-20 10:25:00,86.9,68.8,30.10,NE,45,8.0,-999.0,55,0.00,,,0.01,Wunderground v.1.15,2013-09-20 20:25:00,
2013-09-20 10:30:00,86.9,68.8,30.10,NE,45,8.0,-999.0,55,0.00,,,0.01,Wunderground v.1.15,2013-09-20 20:30:00,
2013-09-20 10:35:00,86.9,68.8,30.10,NE,45,8.0,-999.0,55,0.00,,,0.01,Wunderground v.1.15,2013-09-20 20:35:00,
2013-09-20 10:40:00,86.9,68.8,30.10,NE,45,8.0,-999.0,55,0.00,,,0.01,Wunderground v.1.15,2013-09-20 20:40:00,
2013-09-20 10:45:00,87.5,69.3,30.09,NE,45,9.0,-999.0,55,0.00,,,0.01,Wunderground v.1.15,2013-09-20 20:45:00,
2013-09-20 10:50:00,87.5,69.3,30.09,NE,45,9.0,-999.0,55,0.00,,,0.01,Wunderground v.1.15,2013-09-20 20:50:00,
2013-09-20 10:55:00,87.5,69.3,30.09,NE,45,9.0,-999.0,55,0.00,,,0.01,Wunderground v.1.15,2013-09-20 20:55:00,
2013-09-20 11:00:00,87.5,69.3,30.09,NE,45,9.0,-999.0,55,0.00,,,0.01,Wunderground v.1.15,2013-09-20 21:00:00,
2013-09-20 11:05:00,87.5,69.3,30.09,NE,45,9.0,-999.0,55,0.00,,,0.01,Wunderground v.1.15,2013-09-20 21:05:00,
2013-09-20 11:10:00,87.5,69.3,30.09,NE,45,9.0,-999.0,55,0.00,,,0.01,Wunderground v.1.15,2013-09-20 21:10:00,
2013-09-20 11:15:00,88.5,68.1,30.09,NE,45,9.0,-999.0,51,0.00,,,0.01,Wunderground v.1.15,2013-09-20 21:15:00,
2013-09-20 11:20:00,88.5,68.1,30.09,NE,45,9.0,-999.0,51,0.00,,,0.01,Wunderground v.1.15,2013-09-20 21:20:00,
2013-09-20 11:25:00,88.5,68.1,30.09,NE,45,9.0,-999.0,51,0.00,,,0.01,Wunderground v.1.15,2013-09-20 21:25:00,
2013-09-20 11:30:00,88.5,68.1,30.09,NE,45,9.0,-999.0,51,0.00,,,0.01,Wunderground v.1.15,2013-09-20 21:30:00,
2013-09-20 11:35:00,88.5,68.1,30.09,NE,45,9.0,-999.0,51,0.00,,,0.01,Wunderground v.1.15,2013-09-20 21:35:00,
2013-09-20 11:40:00,88.5,68.1,30.09,NE,45,9.0,-999.0,51,0.00,,,0.01,Wunderground v.1.15,2013-09-20 21:40:00,
2013-09-20 11:45:00,89.5,69.0,30.08,NE,45,9.0,-999.0,51,0.00,,,0.01,Wunderground v.1.15,2013-09-20 21:45:00,
2013-09-20 11:50:00,89.5,69.0,30.08,NE,45,9.0,-999.0,51,0.00,,,0.01,Wunderground v.1.15,2013-09-20 21:50:00,
2013-09-20 11:55:00,89.5,69.0,30.08,NE,45,9.0,-999.0,51,0.00,,,0.01,Wunderground v.1.15,2013-09-20 21:55:00,
2013-09-20 12:00:00,89.5,69.0,30.08,NE,45,9.0,-999.0,51,0.00,,,0.01,Wunderground v.1.15,2013-09-20 22:00:00,
2013-09-20 12:05:00,89.5,69.0,30.08,NE,45,9.0,-999.0,51,0.00,,,0.01,Wunderground v.1.15,2013-09-20 22:05:00,
2013-09-20 12:10:00,89.5,69.0,30.08,NE,45,9.0,-999.0,51,0.00,,,0.01,Wunderground v.1.15,2013-09-20 22:10:00,
2013-09-20 12:15:00,89.1,69.2,30.07,NE,45,9.0,-999.0,52,0.00,,,0.01,Wunderground v.1.15,2013-09-20 22:15:00,
2013-09-20 12:20:00,89.1,69.2,30.07,NE,45,9.0,-999.0,52,0.00,,,0.01,Wunderground v.1.15,2013-09-20 22:20:00,
2013-09-20 12:25:00,89.1,69.2,30.07,NE,45,9.0,-999.0,52,0.00,,,0.01,Wunderground v.1.15,2013-09-20 22:25:00,
2013-09-20 12:30:00,89.1,69.2,30.07,NE,45,9.0,-999.0,52,0.00,,,0.01,Wunderground v.1.15,2013-09-20 22:30:00,
2013-09-20 12:35:00,89.1,69.2,30.07,NE,45,9.0,-999.0,52,0.00,,,0.01,Wunderground v.1.15,2013-09-20 22:35:00,
2013-09-20 12:40:00,89.1,69.2,30.07,NE,45,9.0,-999.0,52,0.00,,,0.01,Wunderground v.1.15,2013-09-20 22:40:00,
2013-09-20 12:45:00,89.0,70.2,30.07,NE,45,10.0,-999.0,54,0.00,,,0.01,Wunderground v.1.15,2013-09-20 22:45:00,
2013-09-20 12:50:00,89.0,70.2,30.07,NE,45,10.0,-999.0,54,0.00,,,0.01,Wunderground v.1.15,2013-09-20 22:50:00,
2013-09-20 12:55:00,89.0,70.2,30.07,NE,45,10.0,-999.0,54,0.00,,,0.01,Wunderground v.1.15,2013-09-20 22:55:00,
2013-09-20 13:00:00,89.0,70.2,30.07,NE,45,10.0,-999.0,54,0.00,,,0.01,Wunderground v.1.15,2013-09-20 23:00:00,
2013-09-20 13:05:00,89.0,70.2,30.07,NE,45,10.0,-999.0,54,0.00,,,0.01,Wunderground v.1.15,2013-09-20 23:05:00,
2013-09-20 13:10:00,89.0,70.2,30.07,NE,45,10.0,-999.0,54,0.00,,,0.01,Wunderground v.1.15,2013-09-20 23:10:00,
2013-09-20 13:15:00,88.6,68.2,30.06,NE,45,9.0,-999.0,51,0.00,,,0.01,Wunderground v.1.15,2013-09-20 23:15:00,
2013-09-20 13:20:00,88.6,68.2,30.06,NE,45,9.0,-999.0,51,0.00,,,0.01,Wunderground v.1.15,2013-09-20 23:20:00,
2013-09-20 13:25:00,88.6,68.2,30.06,NE,45,9.0,-999.0,51,0.00,,,0.01,Wunderground v.1.15,2013-09-20 23:25:00,
2013-09-20 13:30:00,88.6,68.2,30.06,NE,45,9.0,-999.0,51,0.00,,,0.01,Wunderground v.1.15,2013-09-20 23:30:00,
2013-09-20 13:35:00,88.6,68.2,30.06,NE,45,9.0,-999.0,51,0.00,,,0.01,Wunderground v.1.15,2013-09-20 23:35:00,
2013-09-20 13:40:00,88.6,68.2,30.06,NE,45,9.0,-999.0,51,0.00,,,0.01,Wunderground v.1.15,2013-09-20 23:40:00,
2013-09-20 13:45:00,89.0,69.1,30.05,NE,45,8.0,-999.0,52,0.00,,,0.01,Wunderground v.1.15,2013-09-20 23:45:00,
2013-09-20 13:50:00,89.0,69.1,30.05,NE,45,8.0,-999.0,52,0.00,,,0.01,Wunderground v.1.15,2013-09-20 23:50:00,
2013-09-20 13:55:00,89.0,69.1,30.05,NE,45,8.0,-999.0,52,0.00,,,0.01,Wunderground v.1.15,2013-09-20 23:55:00,
2013-09-20 14:00:00,89.0,69.1,30.05,NE,45,8.0,-999.0,52,0.00,,,0.01,Wunderground v.1.15,2013-09-21 00:00:00,
2013-09-20 14:05:00,89.0,69.1,30.05,NE,45,8.0,-999.0,52,0.00,,,0.01,Wunderground v.1.15,2013-09-21 00:05:00,
2013-09-20 14:10:00,89.0,69.1,30.05,NE,45,8.0,-999.0,52,0.00,,,0.01,Wunderground v.1.15,2013-09-21 00:10:00,
2013-09-20 14:15:00,89.4,71.6,30.05,NE,45,9.0,-999.0,56,0.00,,,0.01,Wunderground v.1.15,2013-09-21 00:15:00,
2013-09-20 14:20:00,89.4,71.6,30.05,NE,45,9.0,-999.0,56,0.00,,,0.01,Wunderground v.1.15,2013-09-21 00:20:00,
2013-09-20 14:25:00,89.4,71.6,30.05,NE,45,9.0,-999.0,56,0.00,,,0.01,Wunderground v.1.15,2013-09-21 00:25:00,
2013-09-20 14:30:00,89.4,71.6,30.05,NE,45,9.0,-999.0,56,0.00,,,0.01,Wunderground v.1.15,2013-09-21 00:30:00,
2013-09-20 14:35:00,89.4,71.6,30.05,NE,45,9.0,-999.0,56,0.00,,,0.01,Wunderground v.1.15,2013-09-21 00:35:00,
2013-09-20 14:40:00,89.4,71.6,30.05,NE,45,9.0,-999.0,56,0.00,,,0.01,Wunderground v.1.15,2013-09-21 00:40:00,
2013-09-20 14:45:00,88.1,73.0,30.05,NE,45,9.0,-999.0,61,0.00,,,0.01,Wunderground v.1.15,2013-09-21 00:45:00,
2013-09-20 14:50:00,88.1,73.0,30.05,NE,45,9.0,-999.0,61,0.00,,,0.01,Wunderground v.1.15,2013-09-21 00:50:00,
2013-09-20 14:55:00,88.1,73.0,30.05,NE,45,9.0,-999.0,61,0.00,,,0.01,Wunderground v.1.15,2013-09-21 00:55:00,
2013-09-20 15:00:00,88.1,73.0,30.05,NE,45,9.0,-999.0,61,0.00,,,0.01,Wunderground v.1.15,2013-09-21 01:00:00,
2013-09-20 15:05:00,88.1,73.0,30.05,NE,45,9.0,-999.0,61,0.00,,,0.01,Wunderground v.1.15,2013-09-21 01:05:00,
2013-09-20 15:10:00,88.1,73.0,30.05,NE,45,9.0,-999.0,61,0.00,,,0.01,Wunderground v.1.15,2013-09-21 01:10:00,
2013-09-20 15:15:00,86.1,72.0,30.04,NE,45,10.0,-999.0,63,0.00,,,0.01,Wunderground v.1.15,2013-09-21 01:15:00,
2013-09-20 15:20:00,86.1,72.0,30.04,NE,45,10.0,-999.0,63,0.00,,,0.01,Wunderground v.1.15,2013-09-21 01:20:00,
2013-09-20 15:25:00,86.1,72.0,30.04,NE,45,10.0,-999.0,63,0.00,,,0.01,Wunderground v.1.15,2013-09-21 01:25:00,
2013-09-20 15:30:00,86.1,72.0,30.04,NE,45,10.0,-999.0,63,0.00,,,0.01,Wunderground v.1.15,2013-09-21 01:30:00,
2013-09-20 15:35:00,86.1,72.0,30.04,NE,45,10.0,-999.0,63,0.00,,,0.01,Wunderground v.1.15,2013-09-21 01:35:00,
2013-09-20 15:40:00,86.1,72.0,30.04,NE,45,10.0,-999.0,63,0.00,,,0.01,Wunderground v.1.15,2013-09-21 01:40:00,
2013-09-20 15:45:00,83.9,75.9,30.04,NE,45,6.0,-999.0,77,0.00,,,0.01,Wunderground v.1.15,2013-09-21 01:45:00,
2013-09-20 15:50:00,83.9,75.9,30.04,NE,45,6.0,-999.0,77,0.00,,,0.01,Wunderground v.1.15,2013-09-21 01:50:00,
2013-09-20 15:55:00,83.9,75.9,30.04,NE,45,6.0,-999.0,77,0.00,,,0.01,Wunderground v.1.15,2013-09-21 01:55:00,
2013-09-20 16:00:00,83.9,75.9,30.04,NE,45,6.0,-999.0,77,0.00,,,0.01,Wunderground v.1.15,2013-09-21 02:00:00,
2013-09-20 16:05:00,83.9,75.9,30.04,NE,45,6.0,-999.0,77,0.00,,,0.01,Wunderground v.1.15,2013-09-21 02:05:00,
2013-09-20 16:10:00,83.9,75.9,30.04,NE,45,6.0,-999.0,77,0.00,,,0.01,Wunderground v.1.15,2013-09-21 02:10:00,
2013-09-20 16:15:00,78.9,72.6,30.04,NE,45,7.0,-999.0,81,0.01,,,0.01,Wunderground v.1.15,2013-09-21 02:15:00,
2013-09-20 16:20:00,78.9,72.6,30.04,NE,45,7.0,-999.0,81,0.01,,,0.01,Wunderground v.1.15,2013-09-21 02:20:00,
2013-09-20 16:25:00,78.9,72.6,30.04,NE,45,7.0,-999.0,81,0.01,,,0.01,Wunderground v.1.15,2013-09-21 02:25:00,
2013-09-20 16:30:00,78.9,72.6,30.04,NE,45,7.0,-999.0,81,0.01,,,0.01,Wunderground v.1.15,2013-09-21 02:30:00,
2013-09-20 16:35:00,78.9,72.6,30.04,NE,45,7.0,-999.0,81,0.01,,,0.01,Wunderground v.1.15,2013-09-21 02:35:00,
2013-09-20 16:40:00,78.9,72.6,30.04,NE,45,7.0,-999.0,81,0.01,,,0.01,Wunderground v.1.15,2013-09-21 02:40:00,
2013-09-20 16:45:00,79.5,72.0,30.05,NE,45,8.0,-999.0,78,0.01,,,0.01,Wunderground v.1.15,2013-09-21 02:45:00,
2013-09-20 16:50:00,79.5,72.0,30.05,NE,45,8.0,-999.0,78,0.01,,,0.01,Wunderground v.1.15,2013-09-21 02:50:00,
2013-09-20 16:55:00,79.5,72.0,30.05,NE,45,8.0,-999.0,78,0.01,,,0.01,Wunderground v.1.15,2013-09-21 02:55:00,
2013-09-20 17:00:00,79.5,72.0,30.05,NE,45,8.0,-999.0,78,0.01,,,0.01,Wunderground v.1.15,2013-09-21 03:00:00,
2013-09-20 17:05:00,79.5,72.0,30.05,NE,45,8.0,-999.0,78,0.01,,,0.01,Wunderground v.1.15,2013-09-21 03:05:00,
2013-09-20 17:10:00,79.5,72.0,30.05,NE,45,8.0,-999.0,78,0.01,,,0.01,Wunderground v.1.15,2013-09-21 03:10:00,
2013-09-20 17:15:00,76.8,70.9,30.06,NE,45,7.0,-999.0,82,0.00,,,0.01,Wunderground v.1.15,2013-09-21 03:15:00,
2013-09-20 17:20:00,76.8,70.9,30.06,NE,45,7.0,-999.0,82,0.00,,,0.01,Wunderground v.1.15,2013-09-21 03:20:00,
2013-09-20 17:25:00,76.8,70.9,30.06,NE,45,7.0,-999.0,82,0.00,,,0.01,Wunderground v.1.15,2013-09-21 03:25:00,
2013-09-20 17:30:00,76.8,70.9,30.06,NE,45,7.0,-999.0,82,0.00,,,0.01,Wunderground v.1.15,2013-09-21 03:30:00,
2013-09-20 17:35:00,76.8,70.9,30.06,NE,45,7.0,-999.0,82,0.00,,,0.01,Wunderground v.1.15,2013-09-21 03:35:00,
2013-09-20 17:40:00,76.8,70.9,30.06,NE,45,7.0,-999.0,82,0.00,,,0.01,Wunderground v.1.15,2013-09-21 03:40:00,
2013-09-20 17:45:00,73.8,68.3,30.06,ENE,68,3.0,-999.0,83,0.00,,,0.01,Wunderground v.1.15,2013-09-21 03:45:00,
2013-09-20 17:50:00,73.8,68.3,30.06,ENE,68,3.0,-999.0,83,0.00,,,0.01,Wunderground v.1.15,2013-09-21 03:50:00,
2013-09-20 17:55:00,73.8,68.3,30.06,ENE,68,3.0,-999.0,83,0.00,,,0.01,Wunderground v.1.15,2013-09-21 03:55:00,
2013-09-20 18:00:00,73.8,68.3,30.06,ENE,68,3.0,-999.0,83,0.00,,,0.01,Wunderground v.1.15,2013-09-21 04:00:00,
2013-09-20 18:05:00,73.8,68.3,30.06,ENE,68,3.0,-999.0,83,0.04,,,0.06,Wunderground v.1.15,2013-09-21 04:05:00,
2013-09-20 18:10:00,73.8,68.3,30.06,ENE,68,3.0,-999.0,83,0.04,,,0.06,Wunderground v.1.15,2013-09-21 04:10:00,
2013-09-20 18:15:00,73.7,68.9,30.06,ENE,68,1.0,-999.0,85,0.05,,,0.06,Wunderground v.1.15,2013-09-21 04:15:00,
2013-09-20 18:20:00,73.7,68.9,30.06,ENE,68,1.0,-999.0,85,0.05,,,0.06,Wunderground v.1.15,2013-09-21 04:20:00,
2013-09-20 18:25:00,73.7,68.9,30.06,ENE,68,1.0,-999.0,85,0.05,,,0.06,Wunderground v.1.15,2013-09-21 04:25:00,
2013-09-20 18:30:00,73.7,68.9,30.06,ENE,68,1.0,-999.0,85,0.05,,,0.06,Wunderground v.1.15,2013-09-21 04:30:00,
2013-09-20 18:35:00,73.7,68.9,30.06,ENE,68,1.0,-999.0,85,0.05,,,0.06,Wunderground v.1.15,2013-09-21 04:35:00,
2013-09-20 18:40:00,73.7,68.9,30.06,ENE,68,1.0,-999.0,85,0.05,,,0.06,Wunderground v.1.15,2013-09-21 04:40:00,
2013-09-20 18:45:00,73.9,69.8,30.07,NE,45,4.0,-999.0,87,0.01,,,0.06,Wunderground v.1.15,2013-09-21 04:45:00,
2013-09-20 18:50:00,73.9,69.8,30.07,NE,45,4.0,-999.0,87,0.01,,,0.06,Wunderground v.1.15,2013-09-21 04:50:00,
2013-09-20 18:55:00,73.9,69.8,30.07,NE,45,4.0,-999.0,87,0.01,,,0.06,Wunderground v.1.15,2013-09-21 04:55:00,
2013-09-20 19:00:00,73.9,69.8,30.07,NE,45,4.0,-999.0,87,0.01,,,0.06,Wunderground v.1.15,2013-09-21 05:00:00,
2013-09-20 19:05:00,73.9,69.8,30.07,NE,45,4.0,-999.0,87,0.01,,,0.06,Wunderground v.1.15,2013-09-21 05:05:00,
2013-09-20 19:10:00,73.9,69.8,30.07,NE,45,4.0,-999.0,87,0.01,,,0.06,Wunderground v.1.15,2013-09-21 05:10:00,
2013-09-20 19:15:00,73.6,69.2,30.08,NE,45,4.0,-999.0,86,0.00,,,0.06,Wunderground v.1.15,2013-09-21 05:15:00,
2013-09-20 19:20:00,73.6,69.2,30.08,NE,45,4.0,-999.0,86,0.00,,,0.06,Wunderground v.1.15,2013-09-21 05:20:00,
2013-09-20 19:25:00,73.6,69.2,30.08,NE,45,4.0,-999.0,86,0.00,,,0.06,Wunderground v.1.15,2013-09-21 05:25:00,
2013-09-20 19:30:00,73.6,69.2,30.08,NE,45,4.0,-999.0,86,0.00,,,0.06,Wunderground v.1.15,2013-09-21 05:30:00,
2013-09-20 19:35:00,73.6,69.2,30.08,NE,45,4.0,-999.0,86,0.00,,,0.06,Wunderground v.1.15,2013-09-21 05:35:00,
2013-09-20 19:40:00,73.6,69.2,30.08,NE,45,4.0,-999.0,86,0.00,,,0.06,Wunderground v.1.15,2013-09-21 05:40:00,
2013-09-20 19:45:00,73.6,67.4,30.09,NE,45,5.0,-999.0,81,0.00,,,0.06,Wunderground v.1.15,2013-09-21 05:45:00,
2013-09-20 19:50:00,73.6,67.4,30.09,NE,45,5.0,-999.0,81,0.00,,,0.06,Wunderground v.1.15,2013-09-21 05:50:00,
2013-09-20 19:55:00,73.6,67.4,30.09,NE,45,5.0,-999.0,81,0.00,,,0.06,Wunderground v.1.15,2013-09-21 05:55:00,
2013-09-20 20:00:00,73.6,67.4,30.09,NE,45,5.0,-999.0,81,0.00,,,0.06,Wunderground v.1.15,2013-09-21 06:00:00,
2013-09-20 20:05:00,73.6,67.4,30.09,NE,45,5.0,-999.0,81,0.00,,,0.06,Wunderground v.1.15,2013-09-21 06:05:00,
2013-09-20 20:10:00,73.6,67.4,30.09,NE,45,5.0,-999.0,81,0.00,,,0.06,Wunderground v.1.15,2013-09-21 06:10:00,
2013-09-20 20:15:00,73.1,66.9,30.09,NE,45,2.0,-999.0,81,0.00,,,0.06,Wunderground v.1.15,2013-09-21 06:15:00,
2013-09-20 20:20:00,73.1,66.9,30.09,NE,45,2.0,-999.0,81,0.00,,,0.06,Wunderground v.1.15,2013-09-21 06:20:00,
2013-09-20 20:25:00,73.1,66.9,30.09,NE,45,2.0,-999.0,81,0.00,,,0.06,Wunderground v.1.15,2013-09-21 06:25:00,
2013-09-20 20:30:00,73.1,66.9,30.09,NE,45,2.0,-999.0,81,0.00,,,0.06,Wunderground v.1.15,2013-09-21 06:30:00,
2013-09-20 20:35:00,73.1,66.9,30.09,NE,45,2.0,-999.0,81,0.00,,,0.06,Wunderground v.1.15,2013-09-21 06:35:00,
2013-09-20 20:40:00,73.1,66.9,30.09,NE,45,2.0,-999.0,81,0.00,,,0.06,Wunderground v.1.15,2013-09-21 06:40:00,
2013-09-20 20:45:00,72.9,68.1,30.10,NE,45,3.0,-999.0,85,0.00,,,0.06,Wunderground v.1.15,2013-09-21 06:45:00,
2013-09-20 20:50:00,72.9,68.1,30.10,NE,45,3.0,-999.0,85,0.00,,,0.06,Wunderground v.1.15,2013-09-21 06:50:00,
2013-09-20 20:55:00,72.9,68.1,30.10,NE,45,3.0,-999.0,85,0.00,,,0.06,Wunderground v.1.15,2013-09-21 06:55:00,
2013-09-20 21:00:00,72.9,68.1,30.10,NE,45,3.0,-999.0,85,0.00,,,0.06,Wunderground v.1.15,2013-09-21 07:00:00,
2013-09-20 21:05:00,72.9,68.1,30.10,NE,45,3.0,-999.0,85,0.00,,,0.06,Wunderground v.1.15,2013-09-21 07:05:00,
2013-09-20 21:10:00,72.9,68.1,30.10,NE,45,3.0,-999.0,85,0.00,,,0.06,Wunderground v.1.15,2013-09-21 07:10:00,
2013-09-20 21:15:00,73.7,68.2,30.09,NE,45,5.0,-999.0,83,0.00,,,0.06,Wunderground v.1.15,2013-09-21 07:15:00,
2013-09-20 21:20:00,73.7,68.2,30.09,NE,45,5.0,-999.0,83,0.00,,,0.06,Wunderground v.1.15,2013-09-21 07:20:00,
2013-09-20 21:25:00,73.7,68.2,30.09,NE,45,5.0,-999.0,83,0.00,,,0.06,Wunderground v.1.15,2013-09-21 07:25:00,
2013-09-20 21:30:00,73.7,68.2,30.09,NE,45,5.0,-999.0,83,0.00,,,0.06,Wunderground v.1.15,2013-09-21 07:30:00,
2013-09-20 21:35:00,73.7,68.2,30.09,NE,45,5.0,-999.0,83,0.00,,,0.06,Wunderground v.1.15,2013-09-21 07:35:00,
2013-09-20 21:40:00,73.7,68.2,30.09,NE,45,5.0,-999.0,83,0.00,,,0.06,Wunderground v.1.15,2013-09-21 07:40:00,
2013-09-20 21:45:00,74.3,67.7,30.10,NE,45,4.0,-999.0,80,0.00,,,0.06,Wunderground v.1.15,2013-09-21 07:45:00,
2013-09-20 21:50:00,74.3,67.7,30.10,NE,45,4.0,-999.0,80,0.00,,,0.06,Wunderground v.1.15,2013-09-21 07:50:00,
2013-09-20 21:55:00,74.3,67.7,30.10,NE,45,4.0,-999.0,80,0.00,,,0.06,Wunderground v.1.15,2013-09-21 07:55:00,
2013-09-20 22:00:00,74.3,67.7,30.10,NE,45,4.0,-999.0,80,0.00,,,0.06,Wunderground v.1.15,2013-09-21 08:00:00,
2013-09-20 22:05:00,74.3,67.7,30.10,NE,45,4.0,-999.0,80,0.00,,,0.06,Wunderground v.1.15,2013-09-21 08:05:00,
2013-09-20 22:10:00,74.3,67.7,30.10,NE,45,4.0,-999.0,80,0.00,,,0.06,Wunderground v.1.15,2013-09-21 08:10:00,
2013-09-20 22:15:00,74.9,67.6,30.10,NE,45,5.0,-999.0,78,0.00,,,0.06,Wunderground v.1.15,2013-09-21 08:15:00,
2013-09-20 22:20:00,74.9,67.6,30.10,NE,45,5.0,-999.0,78,0.00,,,0.06,Wunderground v.1.15,2013-09-21 08:20:00,
2013-09-20 22:25:00,74.9,67.6,30.10,NE,45,5.0,-999.0,78,0.00,,,0.06,Wunderground v.1.15,2013-09-21 08:25:00,
2013-09-20 22:30:00,74.9,67.6,30.10,NE,45,5.0,-999.0,78,0.00,,,0.06,Wunderground v.1.15,2013-09-21 08:30:00,
2013-09-20 22:35:00,74.9,67.6,30.10,NE,45,5.0,-999.0,78,0.00,,,0.06,Wunderground v.1.15,2013-09-21 08:35:00,
2013-09-20 22:40:00,74.9,67.6,30.10,NE,45,5.0,-999.0,78,0.00,,,0.06,Wunderground v.1.15,2013-09-21 08:40:00,
2013-09-20 22:45:00,74.9,68.3,30.10,ENE,68,3.0,-999.0,80,0.00,,,0.06,Wunderground v.1.15,2013-09-21 08:45:00,
2013-09-20 22:50:00,74.9,68.3,30.10,ENE,68,3.0,-999.0,80,0.00,,,0.06,Wunderground v.1.15,2013-09-21 08:50:00,
2013-09-20 22:55:00,74.9,68.3,30.10,ENE,68,3.0,-999.0,80,0.00,,,0.06,Wunderground v.1.15,2013-09-21 08:55:00,
2013-09-20 23:00:00,74.9,68.3,30.10,ENE,68,3.0,-999.0,80,0.00,,,0.06,Wunderground v.1.15,2013-09-21 09:00:00,
2013-09-20 23:05:00,74.9,68.3,30.10,ENE,68,3.0,-999.0,80,0.00,,,0.06,Wunderground v.1.15,2013-09-21 09:05:00,
2013-09-20 23:10:00,74.9,68.3,30.10,ENE,68,3.0,-999.0,80,0.00,,,0.06,Wunderground v.1.15,2013-09-21 09:10:00,
2013-09-20 23:15:00,74.8,67.8,30.10,NE,45,4.0,-999.0,79,0.00,,,0.06,Wunderground v.1.15,2013-09-21 09:15:00,
2013-09-20 23:20:00,74.8,67.8,30.10,NE,45,4.0,-999.0,79,0.00,,,0.06,Wunderground v.1.15,2013-09-21 09:20:00,
2013-09-20 23:25:00,74.8,67.8,30.10,NE,45,4.0,-999.0,79,0.00,,,0.06,Wunderground v.1.15,2013-09-21 09:25:00,
2013-09-20 23:30:00,74.8,67.8,30.10,NE,45,4.0,-999.0,79,0.00,,,0.06,Wunderground v.1.15,2013-09-21 09:30:00,
2013-09-20 23:35:00,74.8,67.8,30.10,NE,45,4.0,-999.0,79,0.00,,,0.06,Wunderground v.1.15,2013-09-21 09:35:00,
2013-09-20 23:40:00,74.8,67.8,30.10,NE,45,4.0,-999.0,79,0.00,,,0.06,Wunderground v.1.15,2013-09-21 09:40:00,
2013-09-20 23:45:00,74.9,68.3,30.09,ENE,68,3.0,-999.0,80,0.00,,,0.06,Wunderground v.1.15,2013-09-21 09:45:00,
2013-09-20 23:50:00,74.9,68.3,30.09,ENE,68,3.0,-999.0,80,0.00,,,0.06,Wunderground v.1.15,2013-09-21 09:50:00,
2013-09-20 23:55:00,74.9,68.3,30.09,ENE,68,3.0,-999.0,80,0.00,,,0.06,Wunderground v.1.15,2013-09-21 09:55:00,